Regional Weather Roundup
Issued by NWS

Home | Current Version | Previous Version | Graphics & Text | Print | Product List | Glossary On
Versions: 1 2 3 4 5 6 7 8 9 10 11 12 13 14 15 16 17 18 19 20 21 22 23 24 25 26 27 28 29 30 31 32 33 34 35 36 37 38 39 40 41 42 43 44 45 46 47 48 49 50
000
ASUS43 KTOP 242308
RWRKS

WEATHER ROUNDUP FOR KANSAS
NATIONAL WEATHER SERVICE GOODLAND KS
600 PM CDT WED MAY 24 2017

NOTE:  "FAIR" INDICATES FEW OR NO CLOUDS BELOW 12,000 FEET WITH NO
SIGNIFICANT WEATHER AND/OR OBSTRUCTIONS TO VISIBILITY.

KSZ001>006-013>018-027>032-041>047-250000-
NORTHWEST KANSAS

CITY           SKY/WX    TMP DP  RH WIND       PRES   REMARKS
GOODLAND       SUNNY     76  43  30 S15       29.61F
HAYS           SUNNY     69  42  37 S7        29.69F
HILL CITY      SUNNY     71  40  32 S8        29.66F
RUSSELL        SUNNY     66  42  41 CALM      29.68F
$$

KSZ061>065-074>080-084>089-250000-
SOUTHWEST KANSAS

CITY           SKY/WX    TMP DP  RH WIND       PRES   REMARKS
DODGE CITY     SUNNY     73  43  33 SW8       29.68F
ELKHART          N/A     80  41  25 S3          N/A
GARDEN CITY    SUNNY     76  40  27 S9        29.66F
GREAT BEND     SUNNY     67  45  45 W7        29.70
LIBERAL        SUNNY     77  46  33 S5        29.67F
PRATT          SUNNY     65  39  38 CALM      29.71F
$$

KSZ066>073-081>083-090>101-250000-
SOUTHEAST KANSAS

CITY           SKY/WX    TMP DP  RH WIND       PRES   REMARKS
CHANUTE        PTSUNNY   69  46  43 NW16      29.69S
COFFEYVILLE    PTSUNNY   70  49  47 NW12      29.70S
HUTCHINSON     SUNNY     66  42  41 SW5       29.71F
MEDICINE LODGE   N/A     72  41  32 CALM      29.69F
NEWTON         MOSUNNY   65  44  46 CALM      29.73F
PARSONS        MOSUNNY   68  47  46 NW10      29.71S
WICHITA INTL   MOSUNNY   66  43  43 W6        29.72F
WICHITA JABRA  PTSUNNY   67  44  43 W9        29.72F
WICHITA MCCONL PTSUNNY   66  43  42 N6        29.72F
WINFIELD       MOSUNNY   66  44  45 CALM      29.73F
$$

KSZ007>012-019>026-033>040-048>060-102>105-250000-
NORTHEAST KANSAS

CITY           SKY/WX    TMP DP  RH WIND       PRES   REMARKS
CONCORDIA      CLOUDY    66  44  45 CALM      29.70F
EMPORIA        MOSUNNY   67  45  45 N8        29.70S
LAWRENCE       SUNNY     68  49  50 NW12      29.68S
MANHATTAN      MOSUNNY   67  45  45 VRB5      29.69F
MARYSVILLE     SUNNY     66  45  45 NE5       29.70S
OLATHE IND     CLOUDY    66  49  54 N8        29.68F
OLATHE EXE     CLOUDY    63  49  60 NW10      29.68S
SALINA         SUNNY     69  43  38 CALM      29.71F
TOPEKA BILLARD MOSUNNY   68  47  46 NW8       29.68S
TOPEKA FORBES  MOSUNNY   67  47  48 N7        29.68F
$$




USA.gov is the U.S. government's official web portal to all federal, state and local government web resources and services.